Regional Weather Roundup
Issued by NWS

Home | Current Version | Previous Version | Graphics & Text | Print | Product List | Glossary On
Versions: 1 2 3 4 5 6 7 8 9 10 11 12 13 14 15 16 17 18 19 20 21 22 23 24 25 26 27 28 29 30 31 32 33 34 35 36 37 38 39 40 41 42 43 44 45 46 47 48 49 50
000
ASUS45 KCYS 010810
RWRWY

WYOMING REGIONAL WEATHER ROUNDUP
NATIONAL WEATHER SERVICE CHEYENNE WY
200 AM MDT WED JUL 01 2015

NOTE:  "FAIR" INDICATES FEW OR NO CLOUDS BELOW 12,000 FEET
WITH NO SIGNIFICANT WEATHER AND/OR OBSTRUCTIONS TO VISIBILITY.

WYZ001-010900-
YELLOWSTONE NATIONAL PARK

CITY           SKY/WX    TMP DP  RH WIND       PRES   REMARKS
LK YELLOWSTONE   N/A     51  45  79 CALM      30.36F
W YELLOWSTONE  NOT AVBL

$$
WYZ002>013-054>058-071-098>099-010900-
NORTHERN WYOMING

CITY           SKY/WX    TMP DP  RH WIND       PRES   REMARKS
JACKSON        FAIR      54  48  82 N5        30.25F
CODY           FAIR      66  46  48 W5        30.14R
GREYBULL       FAIR      70  54  56 W5        30.03R
WORLAND        FAIR      67  57  70 S7        30.03S
SHERIDAN       FAIR      64  48  56 NW8       30.06S
BUFFALO        FAIR      71  44  37 NW10      30.13R
GILLETTE       FAIR      64  51  62 W5        30.04S
HULETT         FAIR      63  55  77 S8        30.03S
NEWCASTLE      FAIR      64  55  72 N6        30.02S

$$
WYZ014>020-022>026-101>103-010900-
CENTRAL WYOMING

CITY           SKY/WX    TMP DP  RH WIND       PRES   REMARKS
BIG PINEY      FAIR      61  47  59 NE3       30.28F
PINEDALE       FAIR      54  48  82 NW7       30.29F
DUBOIS         FAIR      54  43  66 NW8       30.29S
LANDER         FAIR      61  53  75 VRB3      30.14F
RIVERTON       FAIR      63  54  72 CALM      30.15F
CASPER         FAIR      60  53  77 W7        30.13S
DOUGLAS        FAIR      60  56  86 NW5       30.10S

$$
WYZ021-027>030-104>119-010900-
SOUTHERN WYOMING

CITY           SKY/WX    TMP DP  RH WIND       PRES   REMARKS
EVANSTON       FAIR      70  45  40 SW12      30.32R
KEMMERER       FAIR      64  46  52 CALM      30.31S
FORT BRIDGER   MOSUNNY   70  48  46 W12       30.33R
ROCK SPRINGS   FAIR      62  53  72 N5        30.25S
DIXON          FAIR      60  53  77 NE6       30.25S
RAWLINS        MOCLDY    58  55  90 CALM      30.24F
SARATOGA       CLOUDY    59  52  77 CALM      30.27F
LARAMIE        FAIR      57  52  83 CALM      30.26R
CHEYENNE       FAIR      61  57  87 N3        30.15F
TORRINGTON     FAIR      67  58  72 NW3       30.01F
PINE BLUFFS    FAIR      59  57  94 CALM      30.09F

$$



USA.gov is the U.S. government's official web portal to all federal, state and local government web resources and services.